Probability
0 0 0 0 0 0 0 0 0 0 0 0 0 0 0 0 0 0 0 0 0 0 0 0 0 0 0 0 0 0 0 0 0 0 0 0 0 0 0 0 0 0 0
0 0 0 0 0 0 0 0 0 0 0 0 0 0 0 0 0 0 0 0 0 0 0 0 0 0 0 0 0 0 0 0 0 0 0 0 0 0 0 0 0 0 0
0 0 0 0 0 0 0 0 0 0 0 0 0 0 0 0 0 0 0 0 0 0 0 0 0 0 0 0 0 0 0 0 0 0 0 0 0 0 0 0 0 0 0
0 0 0 0 0 0 0 0 0 0 0 0 0 0 0 0 0 0 0 0 0 0 0 0 0 0 0 0 0 0 0 0 0 0 0 0 1 1 1 0 0 0 0
0 0 0 0 0 0 0 0 0 0 0 0 0 0 0 0 0 0 0 0 0 0 0 0 0 0 0 0 0 0 0 0 0 0 0 0 1 2 1 0 0 0 0
0 0 0 0 0 0 0 0 0 0 0 0 0 0 0 0 0 0 0 0 0 0 0 0 0 0 0 0 0 0 0 0 0 0 0 0 1 1 1 0 0 0 0
0 0 0 0 0 0 0 0 0 0 0 0 0 0 0 0 0 0 0 0 0 0 0 0 0 0 0 0 0 0 0 0 0 0 0 0 0 0 0 0 0 0 0
0 0 0 0 0 0 0 0 0 0 0 0 0 0 0 0 0 0 0 0 0 0 0 0 0 0 0 0 0 0 0 0 0 0 0 0 0 0 0 0 0 0 0
0 0 0 0 0 0 0 0 0 0 0 0 0 0 0 0 0 0 0 0 0 0 0 0 0 0 0 0 0 0 0 0 0 0 0 0 0 0 0 0 0 0 0
0 0 0 0 0 0 0 0 0 0 0 0 0 0 0 0 0 0 0 0 0 0 0 0 0 0 0 0 0 0 0 0 0 0 0 0 0 0 0 0 0 0 0
0 0 0 0 0 0 0 0 0 0 0 0 0 0 0 0 0 0 0 0 0 0 0 0 0 0 0 0 0 0 0 0 0 0 0 0 0 0 0 0 0 0 0
0 0 0 0 0 0 0 0 0 0 0 0 0 0 0 0 0 0 0 0 0 0 0 0 0 0 0 0 0 0 0 0 0 0 0 0 0 0 0 0 0 0 0
0 0 0 0 0 0 0 0 0 0 0 0 0 0 0 0 0 0 0 0 0 0 0 0 0 0 0 0 0 0 0 0 0 0 0 0 0 0 0 0 0 0 0
0 0 0 0 0 0 0 0 0 0 0 0 0 0 0 0 0 0 0 0 0 0 0 0 0 0 0 0 0 0 0 0 0 0 0 0 0 0 0 0 0 0 0
0 0 0 0 0 0 0 0 0 0 0 0 0 0 0 0 0 0 0 0 0 0 0 0 0 0 0 0 0 0 0 0 0 0 0 0 0 0 0 0 0 0 0
0 0 0 0 0 0 0 0 0 0 0 0 0 0 0 0 0 0 0 0 0 0 0 0 0 0 0 0 0 0 0 0 0 0 0 0 0 0 0 0 0 0 0
0 0 0 0 0 0 0 0 0 0 0 0 0 0 0 0 0 0 0 0 0 0 0 0 0 0 0 0 0 0 0 0 0 0 0 0 0 0 0 0 0 0 0
0 0 0 0 0 0 0 0 0 0 0 0 0 0 0 0 0 0 0 0 0 0 0 0 0 0 0 0 0 0 0 0 0 0 0 0 0 0 0 0 0 0 0
0 0 0 0 0 0 0 0 0 0 0 0 0 0 0 0 0 0 0 0 0 0 0 0 0 0 0 0 0 0 0 0 0 0 0 0 0 0 0 0 0 0 0
0 0 0 0 0 0 0 0 0 0 0 0 0 0 0 0 0 0 0 0 0 0 0 0 0 0 0 0 0 0 0 0 0 0 0 0 0 0 0 0 0 0 0
0 0 0 0 0 0 0 0 0 0 0 0 0 0 0 0 0 0 0 0 0 0 0 0 0 0 0 0 0 0 0 0 0 0 0 0 0 0 0 0 0 0 0
0 0 0 0 0 0 0 0 0 0 0 0 0 0 0 0 0 0 0 0 0 0 0 0 0 0 0 0 0 0 0 0 0 0 0 0 0 0 0 0 0 0 0
0 0 0 0 0 0 0 0 0 0 0 0 0 0 0 0 0 0 0 0 0 0 0 0 0 0 0 0 0 0 0 0 0 0 0 0 0 0 0 0 0 0 0
0 0 0 0 0 0 0 0 0 0 0 0 0 0 0 0 0 0 0 0 0 0 0 0 0 0 0 0 0 0 0 0 0 0 0 0 0 0 0 0 0 0 0
0 0 0 0 0 0 0 0 0 0 0 0 0 0 0 0 0 0 0 0 0 0 0 0 0 0 0 0 0 0 0 0 0 0 0 0 0 0 0 0 0 0 0
0 0 0 0 0 0 0 0 0 0 0 0 0 0 0 0 0 0 0 0 0 0 0 0 0 0 0 0 0 0 0 0 0 0 0 0 0 0 0 0 0 0 0
Wind_Speed
3 5 6 7 8 9 10 12 13 14 15 15 15 16 16 16 15 14 15 16 17 16 16 18 19 19 13 15 10 10 10 11 13 12 14 13 16 12 13 11 11 13 15
3 5 6 8 9 10 11 12 14 14 15 15 15 17 17 17 16 16 17 17 18 18 17 18 18 18 16 17 11 10 9 12 13 13 14 12 15 18 19 19 15 13 15
3 4 6 8 9 10 12 13 14 15 15 16 16 17 18 18 18 17 18 18 18 18 18 19 18 22 18 15 14 9 9 10 13 11 12 13 14 15 19 19 19 16 17
3 4 7 9 10 11 12 13 14 14 15 16 16 17 18 18 19 19 20 19 18 18 18 19 19 23 20 17 14 10 8 8 9 8 9 16 15 17 19 20 19 17 15
4 6 8 10 11 12 13 14 14 15 14 16 18 17 17 17 17 20 20 18 19 19 19 19 20 23 29 27 18 11 9 7 8 9 12 13 13 20 20 18 19 17 16
5 6 9 12 13 14 15 14 15 16 15 16 17 18 18 15 25 32 25 18 19 19 18 18 19 23 27 33 33 26 17 13 10 10 13 13 21 22 20 22 20 18 16
4 6 8 10 12 13 14 14 14 16 16 16 18 18 19 20 29 33 31 19 17 18 18 19 17 17 21 18 22 25 21 21 19 11 14 19 20 21 25 26 24 23 17
3 5 8 9 11 13 14 15 14 14 15 17 18 18 18 20 32 33 31 18 17 19 20 20 20 20 20 20 14 13 13 14 15 13 17 19 21 18 23 27 27 24 16
3 6 7 9 11 13 14 15 14 15 15 16 17 18 18 21 30 32 27 14 14 19 19 19 19 19 25 29 20 15 13 13 14 20 25 32 39 33 26 22 21 20 17
4 6 7 8 8 11 14 14 14 14 15 16 18 17 18 21 27 31 28 12 13 14 14 16 20 23 28 30 21 15 16 14 10 12 19 26 25 28 34 28 25 22 19
2 4 5 7 8 10 12 14 13 13 14 15 17 16 16 18 22 30 30 16 13 14 13 11 12 24 29 30 26 16 16 13 11 13 15 17 16 19 22 22 23 22 23
2 4 5 6 7 8 11 13 12 12 13 15 16 14 13 16 19 27 30 26 22 16 13 10 10 21 25 27 22 21 24 21 13 11 11 13 14 18 20 22 24 21 23
4 4 4 8 7 8 9 11 11 10 11 13 13 14 14 13 14 24 27 29 26 19 13 17 20 22 23 20 22 24 19 12 9 8 11 12 13 17 20 21 22 20 15
3 4 5 7 9 8 7 8 9 10 11 12 13 14 15 14 14 14 14 16 19 17 14 15 18 19 19 16 13 12 6 6 7 8 11 10 12 14 14 16 15 17 14
3 4 4 5 6 9 8 7 8 9 14 13 12 12 15 16 20 27 24 18 14 15 16 9 8 9 9 8 8 9 7 7 8 9 12 10 11 13 12 15 14 14 14
5 5 4 5 5 6 7 10 13 17 22 22 23 20 17 23 31 31 31 26 24 23 12 5 5 6 7 6 5 7 8 8 9 11 10 11 13 15 14 13 15 15 15
4 3 3 5 5 5 5 6 10 15 19 21 25 27 27 27 29 30 29 24 23 20 12 10 9 10 10 10 9 8 6 8 10 10 9 11 12 13 15 15 14 14 15
4 3 1 3 4 5 5 5 5 8 11 14 19 24 28 31 30 30 29 20 16 15 13 12 11 11 11 11 10 10 9 10 10 9 9 11 13 14 15 15 15 16 14
4 3 1 3 4 4 4 4 4 6 7 9 13 17 20 25 26 26 25 15 13 13 13 12 11 11 11 10 10 10 9 11 12 9 10 11 12 14 14 15 16 19 18
4 4 2 3 3 4 3 4 5 6 7 9 10 13 13 15 16 15 14 13 12 13 13 13 13 13 12 12 12 11 11 12 10 10 11 11 12 14 14 15 16 17 15
4 3 2 2 3 3 3 4 4 4 5 7 8 14 22 14 11 12 12 12 12 13 14 14 14 14 14 13 13 13 13 12 12 6 9 12 12 12 12 14 15 14 14
4 3 1 1 2 3 4 4 4 4 4 6 8 13 20 12 10 11 12 12 12 12 13 13 13 14 15 15 14 14 13 13 12 11 6 8 12 12 11 12 13 14 15
4 4 2 1 1 3 3 4 4 4 5 5 7 8 10 10 10 11 12 12 13 13 14 14 14 15 16 16 15 14 14 14 13 12 10 6 10 12 12 11 13 13 15
4 4 3 1 2 3 3 3 4 5 6 5 6 7 8 9 10 11 12 12 12 13 13 14 15 19 23 21 18 17 16 16 14 13 13 6 4 10 11 11 12 14 14
4 4 3 2 2 2 2 3 3 4 5 5 6 7 8 9 10 10 11 11 13 13 15 15 15 19 24 28 28 27 27 28 24 19 15 13 12 9 3 6 9 11 11
4 4 3 2 2 1 1 2 2 3 3 5 5 6 7 8 9 9 10 12 13 14 15 14 19 22 22 22 28 32 32 31 29 26 19 16 16 14 11 7 4 4 8
Wind_Direction
291 285 295 310 313 304 296 295 295 293 292 292 291 288 285 282 280 276 271 271 269 268 270 270 269 270 268 274 248 237 231 224 239 255 247 245 266 228 175 157 145 145 144
269 286 306 310 308 302 299 301 301 298 293 290 288 286 286 284 281 276 273 271 270 270 271 271 275 270 262 274 254 230 229 235 239 247 249 261 252 228 184 162 160 157 155
258 291 309 310 309 308 308 307 303 299 295 293 292 288 287 285 282 277 274 270 268 267 268 268 268 268 258 266 261 228 228 237 240 243 258 277 263 224 182 162 163 155 158
291 320 316 315 316 311 309 308 302 300 301 299 293 289 287 286 282 281 280 276 270 266 264 261 261 262 259 259 260 238 230 247 260 245 265 263 243 233 175 163 156 147 151
347 334 320 317 313 311 310 306 308 310 307 301 295 291 287 283 279 277 275 272 269 264 260 257 257 261 260 259 257 247 216 229 255 247 255 268 244 215 169 158 154 143 154
355 333 322 317 315 314 313 318 319 314 308 300 295 292 290 283 284 285 281 274 271 269 266 261 257 258 257 256 258 250 228 206 231 243 243 252 255 198 171 162 151 145 152
331 315 308 312 313 317 319 321 318 310 305 304 300 296 292 288 288 287 284 276 268 261 262 263 261 257 257 253 258 252 247 223 222 249 260 254 248 190 172 163 160 155 154
320 302 307 317 318 322 319 317 311 307 311 309 301 299 299 296 294 293 290 280 270 261 249 250 254 258 257 257 254 248 237 229 229 252 258 255 262 222 178 165 164 153 141
316 316 322 326 324 320 312 308 312 313 310 305 301 305 305 299 298 298 295 284 280 274 252 243 244 250 254 256 255 255 255 244 244 263 268 265 260 231 183 161 153 143 147
314 325 334 328 318 306 300 304 310 310 307 308 305 305 306 300 300 306 304 295 290 292 270 248 244 246 250 252 248 245 251 262 275 279 287 279 236 202 179 164 155 149 150
290 324 332 321 305 295 298 301 307 311 310 306 304 310 311 304 306 309 311 310 302 296 288 272 239 245 248 244 247 243 251 267 264 258 279 265 203 181 171 163 161 156 159
354 347 333 305 293 301 300 299 308 313 310 310 313 320 317 310 307 310 313 309 304 297 293 292 263 249 251 247 246 251 250 246 247 251 276 255 189 175 167 162 165 167 173
23 357 323 301 305 306 300 303 314 317 314 314 322 324 320 314 310 305 305 310 310 302 296 292 290 286 276 255 255 261 248 238 236 244 268 246 187 172 167 162 165 166 164
45 23 344 318 316 311 306 310 316 320 316 320 327 323 316 314 305 298 303 305 304 300 296 290 287 284 281 262 251 264 236 219 221 237 261 228 182 168 166 160 163 161 150
78 46 351 315 304 305 314 317 319 321 325 331 328 320 313 313 313 321 322 317 301 293 295 275 273 271 267 248 238 240 231 226 229 233 243 207 175 167 164 162 160 157 156
72 47 347 316 307 310 319 321 336 344 343 343 340 334 323 324 328 332 336 337 338 338 323 300 304 318 311 290 232 229 231 227 230 237 221 187 174 169 161 161 163 164 158
89 57 348 321 313 315 321 326 330 337 344 346 344 341 344 344 343 347 355 356 358 6 4 5 1 346 340 340 333 308 268 241 238 234 204 184 173 165 161 163 165 167 162
102 77 1 300 299 300 305 324 337 335 334 335 337 338 350 356 357 360 5 1 1 9 3 359 356 350 344 340 328 314 311 296 255 220 191 181 174 168 169 169 168 169 165
100 87 2 294 287 293 307 334 347 343 335 331 328 332 348 355 359 3 5 6 359 359 354 353 356 350 343 337 326 318 310 294 267 210 188 180 177 172 171 171 171 173 168
96 71 14 308 313 329 355 360 1 353 345 339 335 327 344 354 354 356 358 357 355 354 353 349 354 353 346 342 340 334 326 313 277 199 185 178 178 179 174 171 174 175 176
106 85 23 341 338 341 5 357 349 345 345 335 328 331 358 3 349 350 351 353 350 348 350 349 352 356 351 348 350 348 342 331 319 288 187 179 178 179 178 174 175 177 173
117 114 103 349 334 353 11 359 345 347 342 335 329 335 348 355 351 349 348 348 346 344 345 349 351 357 356 352 354 356 347 337 330 327 306 190 176 176 176 177 178 176 175
125 119 113 16 5 12 14 7 1 358 344 332 333 335 338 343 346 346 343 342 343 344 345 348 352 355 1 2 359 2 357 343 330 324 314 268 188 178 177 178 179 180 179
134 142 146 132 68 48 23 10 4 1 348 334 335 337 335 334 339 342 341 340 340 342 345 349 353 352 1 6 3 4 9 360 350 345 341 327 195 183 184 184 184 184 183
135 135 141 136 102 68 30 23 17 7 350 338 337 335 333 332 335 338 339 339 339 341 345 349 354 353 359 8 8 8 11 13 13 12 11 17 29 37 76 172 181 183 182
146 149 151 153 135 134 70 35 13 2 349 337 331 328 327 329 330 333 337 337 337 338 341 345 351 355 359 12 12 12 13 20 21 21 24 29 36 35 32 36 72 144 170